Wichita Jabara, KS

10:56 PM CDT on May 22, 2017 (GMT -0500)
Col Jabara

Weather History for KAAO - March, 2013

Change the Weather History Date:

Sunday, March 24, 2013

  Actual Average (KIAB) Record (KIAB)
Temperature  
Mean Temperature 28 °F -  
Max Temperature 33 °F 59 °F 78 °F (1997)
Min Temperature 24 °F 38 °F 24 °F (2006)
Degree Days  
Heating Degree Days 36    
Moisture  
Dew Point 22 °F    
Average Humidity 81    
Maximum Humidity 100    
Minimum Humidity 56    
Precipitation  
Precipitation 0.03 in - - ()
Sea Level Pressure  
Sea Level Pressure 30.05 in    
Wind  
Wind Speed 22 mph (NNW)    
Max Wind Speed 30 mph    
Max Gust Speed 43 mph    
Visibility 5 miles    
Events Fog , Snow    
Averages and records for this station are not official NWS values.
T = Trace of Precipitation, MM = Missing Value Source: NWS Daily Summary

Daily Weather History Graph

Daily Weather History Graph

Search for Another Location

Airport or City:

Trip Planner

Search our weather history database for the weather conditions in past years. The results will help you decide how hot, cold, wet, or windy it might be!

Date:

Astronomy

Mar. 24, 2013 Rise Set
Actual Time 7:25 AM CDT 7:44 PM CDT
Civil Twilight 6:59 AM CDT 8:10 PM CDT
Nautical Twilight 6:28 AM CDT 8:41 PM CDT
Astronomical Twilight 5:57 AM CDT 9:13 PM CDT
Moon 5:16 PM CDT (3/24) 5:34 AM CDT (3/24)
Length of Visible Light 13h 11m
Length of Day
12h 18m
Waxing Gibbous, 92% of the Moon is Illuminated
Mar 24
Waxing Gibbous
Mar 27
Full
Apr 2
Last Quarter
Apr 10
New
Apr 18
First Quarter

Hourly Weather History & Observations

Time (CDT) Temp. Windchill Dew Point Humidity Pressure Visibility Wind Dir Wind Speed Gust Speed Precip Events Conditions
12:05 AM 30.2 °F 18.9 °F 30.2 °F 100% 29.89 in 0.2 mi North 16.1 mph - 0.00 in Fog Light Freezing Fog
12:37 AM 28.4 °F 15.4 °F 28.4 °F 100% 29.90 in 0.5 mi North 19.6 mph 33.4 mph 0.00 in Fog , Snow Snow
12:54 AM 30.0 °F 17.2 °F 28.9 °F 96% 29.95 in 0.8 mi NNW 20.7 mph 33.4 mph 0.00 in Snow Light Snow
1:54 AM 28.9 °F 14.8 °F 28.0 °F 96% 29.96 in 0.5 mi NNW 24.2 mph 29.9 mph 0.00 in Fog , Snow Snow
2:03 AM 28.4 °F 13.8 °F 28.4 °F 100% 29.91 in 0.5 mi NNW 25.3 mph 34.5 mph 0.00 in Fog , Snow Snow
2:51 AM 28.4 °F 12.7 °F 26.6 °F 93% 29.91 in 0.5 mi North 29.9 mph 42.6 mph 0.00 in Fog Light Freezing Fog
2:54 AM 28.0 °F 12.3 °F 27.0 °F 96% 29.95 in 0.5 mi North 29.9 mph 38.0 mph 0.00 in Fog Light Freezing Fog
3:54 AM 28.0 °F 13.0 °F 27.0 °F 96% 29.95 in 0.8 mi NNW 26.5 mph 34.5 mph 0.00 in Snow Light Snow
4:20 AM 26.6 °F 10.8 °F 26.6 °F 100% 29.91 in 0.8 mi North 27.6 mph 34.5 mph 0.00 in Snow Light Snow
4:54 AM 27.0 °F 11.0 °F 26.1 °F 96% 29.97 in 0.8 mi North 28.8 mph 36.8 mph 0.00 in Snow Light Snow
5:10 AM 26.6 °F 10.8 °F 26.6 °F 100% 29.93 in 1.0 mi North 27.6 mph 35.7 mph 0.00 in Snow Light Snow
5:32 AM 26.6 °F 12.4 °F 26.6 °F 100% 29.93 in 0.8 mi North 21.9 mph 32.2 mph 0.00 in Snow Light Snow
5:44 AM 28.4 °F 14.1 °F 26.6 °F 93% 29.94 in 1.0 mi NNW 24.2 mph 32.2 mph 0.00 in Snow Light Snow
7:13 AM 24.8 °F 9.6 °F 23.0 °F 93% 29.97 in 2.0 mi NNW 23.0 mph 34.5 mph 0.00 in Snow Light Snow
7:51 AM 24.8 °F 9.0 °F 21.2 °F 86% 29.99 in 1.8 mi NNW 25.3 mph 38.0 mph 0.00 in Snow Blowing Snow
7:54 AM 24.1 °F 8.0 °F 21.0 °F 88% 30.04 in 2.0 mi NNW 25.3 mph 38.0 mph 0.00 in Snow Blowing Snow
8:03 AM 24.8 °F 9.3 °F 21.2 °F 86% 30.00 in 5.0 mi NNW 24.2 mph 29.9 mph N/A Snow Blowing Snow
8:23 AM 24.8 °F 9.0 °F 21.2 °F 86% 30.01 in 4.0 mi NNW 25.3 mph 29.9 mph 0.00 in   Mostly Cloudy
8:54 AM 24.1 °F 8.3 °F 21.0 °F 88% 30.08 in 2.5 mi NNW 24.2 mph 32.2 mph 0.00 in Snow Light Snow
9:13 AM 24.8 °F 9.6 °F 21.2 °F 86% 30.04 in 3.0 mi NNW 23.0 mph - 0.00 in Snow Light Snow
9:54 AM 25.0 °F 9.5 °F 19.0 °F 78% 30.10 in 10.0 mi NNW 24.2 mph 33.4 mph 0.00 in   Scattered Clouds
10:54 AM 26.1 °F 11.0 °F 19.0 °F 75% 30.12 in 10.0 mi NNW 24.2 mph 31.1 mph N/A   Clear
11:35 AM 26.6 °F 11.4 °F 19.4 °F 74% 30.08 in 10.0 mi NNW 25.3 mph 34.5 mph N/A   Mostly Cloudy
11:54 AM 27.0 °F 12.5 °F 19.0 °F 72% 30.14 in 9.0 mi NNW 23.0 mph 33.4 mph N/A   Mostly Cloudy
12:18 PM 28.4 °F 15.1 °F 19.4 °F 69% 30.10 in 10.0 mi NNW 20.7 mph 31.1 mph N/A   Scattered Clouds
12:54 PM 28.9 °F 15.1 °F 19.9 °F 69% 30.15 in 10.0 mi North 23.0 mph 35.7 mph N/A   Clear
1:54 PM 30.0 °F 16.9 °F 17.1 °F 59% 30.15 in 10.0 mi NNW 21.9 mph 33.4 mph 0.03 in   Clear
2:54 PM 30.9 °F 18.4 °F 18.0 °F 59% 30.14 in 10.0 mi NNW 20.7 mph 32.2 mph N/A   Clear
3:54 PM 32.0 °F 20.1 °F 18.0 °F 56% 30.14 in 10.0 mi NNW 19.6 mph 31.1 mph N/A   Clear
4:54 PM 32.0 °F 19.8 °F 19.0 °F 59% 30.14 in 10.0 mi NNW 20.7 mph 29.9 mph N/A   Clear
5:54 PM 33.1 °F 20.9 °F 19.0 °F 56% 30.14 in 10.0 mi NW 21.9 mph 29.9 mph N/A   Clear
6:54 PM 32.0 °F 19.5 °F 19.0 °F 59% 30.16 in 10.0 mi NW 21.9 mph 26.5 mph N/A   Clear
7:54 PM 30.0 °F 20.0 °F 19.9 °F 66% 30.17 in 10.0 mi WNW 12.7 mph - N/A   Clear
8:54 PM 28.9 °F 19.2 °F 19.9 °F 69% 30.18 in 10.0 mi WNW 11.5 mph - N/A   Clear
9:54 PM 28.9 °F 19.8 °F 19.9 °F 69% 30.19 in 10.0 mi WNW 10.4 mph - N/A   Clear
10:54 PM 28.0 °F 18.1 °F 19.9 °F 72% 30.19 in 10.0 mi WNW 11.5 mph - N/A   Clear
11:54 PM 28.0 °F 18.1 °F 19.9 °F 72% 30.18 in 10.0 mi WNW 11.5 mph - N/A   Clear